TIME,DELAY(SENSOR),PRES,T(CTD),SAL,OXYGEN,RAWTEMP,T(OPTODE),TCPHASE,FLUOR,BETA(BETA700),BETA(BETA412),BETA(BETA440),CDOM,C(CSC),ED(ED412.40),ED(ED444.00),ED(ED489.70),ED(ED554.30),LU(LU411.80),LU(LU443.40),LU(LU489.60),LU(LU554.10),COMP,TILTX,TILTX(TILTY),CHECK
1339795571,5810,497.7600097656250000,6.8579001426696780,34.1613998413085940,76.2035369873046900,592.2291870117188000,6.8350048065185550,49.2473411560058600,51,106,86,79,81,15310,2147750189,2147420699,2148003163,2147869613,2147630875,2147077787,2148245257,2147201627,1004,4,13,37431
1339795703,5805,486.8200073242187500,7.0791997909545900,34.1526985168457000,82.7970886230468800,585.3698730468750000,7.0558657646179200,48.3669395446777340,52,105,87,80,78,15310,2147746953,2147423094,2148005888,2147872566,2147626477,2147080246,2148239360,2147204836,315,4,13,40225
1339795837,5807,475.4500122070312500,7.2087001800537110,34.1515998840332000,87.7242279052734400,581.3057250976562000,7.1865229606628420,47.7433280944824200,51,106,89,78,79,15311,2147750829,2147422070,2148003099,2147872384,2147628269,2147083264,2148242331,2147201362,372,4,13,24467
1339795969,5811,465.0400085449219000,7.2571001052856445,34.1473999023437500,90.0374832153320300,579.2108154296875000,7.2538127899169920,47.4497489929199200,52,104,87,81,79,15314,2147747209,2147421120,2148005330,2147872429,2147628260,2147082770,2148238656,2147205302,206,5,13,2292
1339796104,5809,454.9500122070312500,7.5416002273559570,34.1432991027832000,100.7484970092773400,570.8850708007812000,7.5208468437194820,46.1572608947753900,52,108,89,81,79,15307,2147744914,2147424146,2148002349,2147872859,2147629595,2147083437,2148235748,2147202770,1246,4,13,41366
1339796258,5809,444.2099914550781000,7.7715001106262210,34.1394004821777340,108.9940032958984400,563.7368164062500000,7.7496361732482910,45.1910705566406250,51,108,91,81,78,15309,2147750454,2147420443,2148004233,2147874102,2147623442,2147082779,2148238537,2147201133,1139,4,13,29185
1339796437,5807,431.5299987792969000,7.9437999725341800,34.1146011352539060,124.4139022827148400,558.1160888671875000,7.9292201995849610,43.6026306152343750,51,105,89,80,77,15308,2147747090,2147419693,2148005604,2147873956,2147627712,2147086354,2148236470,2147206006,3181,4,13,213
1339796569,5811,420.5499877929687500,8.2211999893188480,34.1064987182617200,136.8027954101562500,549.2542724609375000,8.2118234634399410,42.3367691040039060,51,106,89,79,77,15312,2147746221,2147421147,2148001755,2147874285,2147625161,2147090697,2148238729,2147202816,136,4,13,14761
1339796701,5808,409.5100097656250000,8.7948999404907230,34.1245994567871100,145.6381988525390600,531.0786743164062000,8.7894363403320310,41.2727699279785160,50,110,90,82,76,15304,2147740909,2147421440,2148001362,2147873590,2147622144,2147088950,2148230363,2147204653,3397,4,13,25555
1339796813,5808,398.2699890136719000,9.0656003952026370,34.1281013488769500,154.9815979003906200,522.6099243164062000,9.0576858520507810,40.3671989440918000,50,110,91,82,74,15302,2147744128,2147421056,2148003904,2147874770,2147619620,2147091766,2148228562,2147206884,602,4,13,45278
1339796923,5808,386.3099975585937500,9.3535995483398440,34.1313018798828100,161.6576995849609400,513.7832031250000000,9.3366985321044920,39.6968612670898440,50,110,89,81,75,15304,2147742546,2147427209,2148004617,2147872256,2147617920,2147091812,2148228251,2147204187,1326,4,13,8214
1339797041,5811,374.5400085449219000,9.8235998153686520,34.1389007568359400,168.2839965820312500,499.3310852050781000,9.7923097610473630,38.9531402587890600,50,110,94,81,74,15303,2147741083,2147420105,2148003081,2147871241,2147614930,2147101659,2148226953,2147208960,1409,4,13,38608
1339797173,5808,363.4299926757812500,10.0076999664306640,34.1467018127441400,174.0677032470703000,492.4324951171875000,10.0092697143554690,38.4163894653320300,50,111,88,81,74,15306,2147738066,2147425755,2148003008,2147873206,2147615588,2147105554,2148228141,2147209252,587,4,14,45813
1339797308,5807,352.3099975585937500,10.2150001525878900,34.1509017944335940,178.1905975341797000,486.2098999023437500,10.2047004699707030,38.0213584899902340,49,111,91,81,74,15301,2147737033,2147421467,2148005129,2147873243,2147612982,2147099648,2148225938,2147208832,3555,4,13,56682
1339797440,5809,341.8299865722656000,10.4537000656127930,34.1581001281738300,181.8480987548828000,478.1260986328125000,10.4582004547119140,37.6326217651367200,49,109,90,80,73,15301,2147734290,2147423177,2148005138,2147871186,2147608310,2147105206,2148223808,2147209243,3283,4,14,19260
1339797616,5809,328.2799987792969000,10.8367004394531250,34.1654014587402340,186.2052001953125000,466.4848937988281000,10.8225297927856450,37.1451606750488300,50,110,89,82,72,15296,2147737910,2147422180,2148004059,2147874038,2147609252,2147111542,2148221979,2147206445,2833,3,14,23808
1339797735,5807,317.5400085449219000,11.3177003860473630,34.1810989379882800,188.2819976806640600,451.4639892578125000,11.2914199829101560,36.7608184814453100,49,109,91,81,73,15299,2147734272,2147423561,2148000000,2147871926,2147607030,2147110509,2148223570,2147204882,3076,3,14,28953
1339797867,5809,306.1799926757812500,11.6627998352050780,34.1977996826171900,192.1143951416015600,439.4762878417969000,11.6646900177001950,36.3167190551757800,49,109,89,82,70,15304,2147733485,2147422857,2148001910,2147873956,2147604242,2147110976,2148217124,2147207094,1826,4,14,16289
1339798001,5808,295.4500122070312500,12.0510997772216800,34.2173995971679700,196.7418975830078000,427.3048095703125000,12.0428895950317380,35.8274993896484400,49,109,89,81,70,15304,2147733339,2147424548,2148000658,2147868900,2147604416,2147124342,2148213952,2147206884,2278,4,14,58308
1339798144,5811,285.1199951171875000,12.6981000900268550,34.2601013183593750,201.7714996337890600,404.5429077148437500,12.7481803894042970,35.1577186584472660,48,105,89,79,69,15306,2147729252,2147423332,2148003894,2147870253,2147599369,2147125485,2148215332,2147209846,1069,3,14,62545
1339798300,5806,273.2200012207031000,13.5395002365112300,34.3296012878418000,210.2230072021484400,378.1946105957031000,13.5616998672485350,34.2512092590332000,49,107,90,81,69,15307,2147726144,2147430098,2148022262,2147871414,2147596681,2147133686,2148215460,2147211529,437,3,14,11247
1339798410,5810,262.4700012207031000,13.9601001739501950,34.3698997497558600,213.2362060546875000,365.6528930664062500,13.9479703903198240,33.8893890380859400,49,111,88,81,69,15304,2147728685,2147449289,2148088813,2147873453,2147595373,2147143158,2148244379,2147212233,1347,4,14,59841
1339798531,5806,250.6900024414062500,14.5673999786376950,34.4165992736816400,210.3011016845703000,345.0826110839844000,14.5803403854370120,33.7458496093750000,49,106,88,81,69,15298,2147723977,2147470683,2148150921,2147874706,2147591872,2147168402,2148273298,2147212489,2651,3,14,58664
1339798643,5806,240.2500000000000000,15.2997999191284180,34.4805984497070300,207.6381988525390600,321.0502929687500000,15.3175697326660160,33.5410881042480500,49,107,91,81,68,15299,2147724845,2147494253,2148218230,2147874678,2147587163,2147178340,2148301705,2147217316,1960,3,15,21292
1339798775,5808,229.2100067138672000,15.6687002182006840,34.5192985534668000,208.4192047119140600,309.4912109375000000,15.6716499328613280,33.3265609741210940,49,107,89,81,67,15294,2147724955,2147508653,2148244288,2147869074,2147586075,2147192832,2148313956,2147219483,917,2,15,55284
1339798910,5808,218.8699951171875000,16.4937000274658200,34.5966987609863300,206.3072052001953000,282.9786987304687500,16.4828300476074220,33.0623397827148440,50,108,89,81,67,15294,2147732662,2147567003,2148384777,2147871844,2147588562,2147228516,2148378660,2147224274,248,3,15,34391
1339799064,5808,207.7400054931640600,17.2921009063720700,34.6795997619628900,205.2176971435547000,257.2384033203125000,17.2694396972656250,32.7563781738281250,52,111,90,80,67,15291,2147747940,2147679094,2148627520,2147873572,2147590784,2147293412,2148492214,2147234349,3453,3,15,11919
1339799216,5807,198.4600067138672000,17.7891006469726560,34.7425003051757800,206.9006042480468800,240.5193023681640600,17.7800903320312500,32.4241600036621100,55,110,88,82,67,15286,2147768841,2147768850,2148787675,2147871771,2147597824,2147349001,2148566747,2147239798,2936,3,15,28040
1339799304,5809,194.7799987792968800,17.9466991424560550,34.7617988586425800,207.3242034912109400,235.4326934814453000,17.9354305267334000,32.3286705017089840,57,112,95,83,67,15283,2147765668,2147722276,2148646189,2147870738,2147594203,2147332196,2148496384,2147240155,1731,3,15,6792
1339799414,5809,190.8500061035156200,18.3022003173828120,34.8002014160156250,207.1578063964843800,223.3639984130859400,18.3039894104003900,32.1696510314941400,58,109,91,81,67,15284,2147809856,2147942848,2149120777,2147873929,2147608859,2147448740,2148724388,2147253632,1861,3,15,40226
1339799538,5803,187.1600036621093800,18.6208000183105470,34.8357009887695300,208.0850982666015600,213.5281066894531200,18.6043701171875000,31.9810905456542970,61,112,89,82,64,15277,2147829339,2147992448,2149188443,2147874404,2147616128,2147467867,2148750966,2147257362,1297,3,15,15423
1339799681,5809,183.0200042724609400,19.0762004852294920,34.8903999328613300,209.6045989990234400,198.9160003662109400,19.0506992340087900,31.6957206726074220,64,112,91,81,66,15276,2147855725,2148083520,2149341129,2147872740,2147624457,2147522816,2148816630,2147263753,1670,2,15,42354
1339799822,5807,178.0399932861328000,19.2598991394042970,34.9082984924316400,209.8094940185547000,191.3609924316406200,19.2815208435058600,31.5811500549316400,66,112,91,81,66,15276,2147918061,2148264018,2149658112,2147878070,2147646747,2147618413,2148955474,2147271058,2469,2,16,31504
1339799888,5807,174.8099975585937500,19.4876995086669920,34.9309005737304700,210.2798004150390600,184.9577941894531200,19.4772090911865230,31.4683494567871100,68,108,89,82,65,15271,2147965568,2148390747,2149861942,2147876827,2147664694,2147685056,2149049353,2147278500,3087,2,16,37653
1339799976,5807,170.8300018310547000,19.6767005920410160,34.9528999328613300,210.8016052246093800,177.7628021240234400,19.6971397399902340,31.3420200347900400,70,111,89,81,65,15270,2148038445,2148593874,2150197184,2147880192,2147691858,2147793773,2149202486,2147290313,3155,2,15,19181
1339800075,5808,166.6600036621093800,19.9713993072509770,34.9902000427246100,212.4400024414062500,169.6806030273437500,19.9442806243896500,31.1442699432373050,72,115,91,81,65,15269,2148126637,2148795721,2150521600,2147880320,2147724553,2147895625,2149341449,2147304009,2944,2,16,65114
1339800176,5809,162.5599975585937500,19.9932003021240230,34.9957008361816400,213.6593017578125000,168.2442932128906200,19.9881992340087900,31.0596694946289060,73,114,90,82,63,15264,2148219318,2148995693,2150801819,2147883638,2147759378,2148010889,2149470061,2147316114,3580,2,16,23745
1339800264,5806,158.5399932861328000,20.0051994323730470,34.9911994934082000,214.2476959228515600,167.7218933105468800,20.0041809082031250,31.0212593078613280,74,112,92,82,63,15260,2148400164,2149365083,2151366180,2147888722,2147832256,2148206582,2149725430,2147336265,440,2,15,17577
1339800352,5806,154.4199981689453000,20.2292003631591800,35.0131988525390600,214.0771942138672000,161.8551940917968800,20.1836605072021500,30.9519405364990230,79,115,90,83,64,15258,2148584420,2149708717,2151842596,2147893193,2147905252,2148380361,2149949741,2147352420,135,3,15,31534
1339800443,5808,150.9700012207031200,20.4356994628906250,35.0372009277343750,214.4716033935547000,154.1770935058593800,20.4186305999755860,30.8281707763671880,85,117,90,82,64,15254,2148796306,2150077001,2152340635,2147895862,2147989238,2148571867,2150163382,2147374610,1190,2,16,55804
1339800575,5808,147.0500030517578000,20.5944004058837900,35.0502014160156250,215.2951049804687500,148.4980926513672000,20.5925006866455080,30.7091197967529300,87,115,90,82,63,15247,2149122651,2150601819,2152980096,2147902573,2148113353,2148829888,2150442212,2147395355,314,2,16,39674
1339800764,5805,142.6699981689453000,20.7625999450683600,35.0589981079101560,216.4297943115234400,142.8533020019531200,20.7653903961181640,30.5748405456542970,87,117,91,82,65,15246,2149690203,2151462665,2154079076,2147915181,2148331346,2149257737,2150924352,2147434752,204,2,16,54881
1339800863,5806,138.6399993896484400,21.1364994049072270,35.0848999023437500,216.8726959228515600,131.3220062255859400,21.1187992095947270,30.3994808197021500,96,120,93,82,64,15240,2150316800,2152412781,2155338276,2147929389,2148573970,2149710692,2151450368,2147479789,2785,2,16,27552
1339800973,5809,135.1799926757812500,21.4829006195068360,35.1188011169433600,218.5137023925781200,122.0593032836914000,21.4029197692871100,30.1931800842285160,103,122,93,84,62,15225,2150809664,2153060123,2156096676,2147938706,2148761334,2149995291,2151756626,2147506898,2060,2,15,64655
1339801107,5811,130.5099945068359400,21.9094009399414060,35.1493988037109400,219.7008972167968800,106.2634963989257800,21.8880004882812500,29.9265804290771500,113,126,93,83,62,15200,2151957120,2154630665,2158011419,2147966482,2149181513,2150656813,2152481161,2147574281,1907,2,15,35672
1339801195,5808,127.0599975585937500,22.1814994812011720,35.1627006530761700,222.3632965087890600,97.3088226318359400,22.1633300781250000,29.6766490936279300,134,126,92,84,63,15186,2153041234,2156045833,2159614308,2147989083,2149563062,2151210550,2153074852,2147628827,1223,2,16,4855
1339801327,5810,123.0999984741211000,22.5487003326416000,35.1631011962890600,227.9743957519531200,86.9365768432617200,22.4825992584228500,29.2677803039550780,143,125,92,84,62,15158,2154848685,2158532672,2162425170,2148032100,2150241993,2152190281,2154077549,2147725257,1268,2,16,14109
1339801450,5808,118.8199996948242200,22.6261005401611330,35.1684989929199200,232.2496948242187500,82.4992294311523400,22.6193008422851560,29.0073108673095700,143,126,92,84,61,15168,2157332873,2161813622,2165933805,2148089782,2151207140,2153447954,2155341558,2147855579,1194,2,16,59471
1339801549,5808,114.4000015258789000,22.7005004882812500,35.1716003417968750,234.8253936767578000,79.8617401123046900,22.7005901336669920,28.8530006408691400,136,127,91,83,60,15159,2160350354,2165664274,2169804873,2148167296,2152394176,2154957924,2156819501,2148000393,424,2,16,51829
1339801637,5807,110.7099990844726600,23.0338993072509770,35.2144012451171900,235.9615020751953000,69.8341064453125000,23.0098991394042970,28.6739292144775400,110,121,92,85,61,15186,2163500928,2169624868,2173795437,2148249024,2153805174,2156764790,2158525339,2148173202,906,2,16,28738
1339801749,5807,107.1100006103515600,23.2663993835449220,35.2313995361328100,237.6374969482422000,61.8940200805664060,23.2551002502441400,28.4972496032714840,92,123,93,83,61,15193,2161767360,2166506925,2169307794,2148209078,2153390363,2155672594,2156901613,2148033984,3193,2,16,22610
1339801881,5806,103.0100021362304700,23.2681007385253900,35.2158012390136700,239.1696929931640600,61.6306495666503900,23.2632408142089840,28.4241790771484380,88,124,91,83,59,15187,2160256621,2163646939,2165173686,2148165293,2153066230,2154749750,2155526134,2147919350,2287,2,16,11068
1339802026,5808,97.6900024414062500,23.5233993530273440,35.2472991943359400,239.6141967773437500,53.8295097351074200,23.5044307708740230,28.3065605163574220,81,126,93,85,60,15184,2164399533,2168168667,2169089124,2148287213,2155302445,2157316352,2157579904,2148126144,2088,2,16,50510
1339802081,5810,94.8899993896484400,23.6858997344970700,35.2541999816894500,240.6517944335937500,48.7815208435058600,23.6606502532959000,28.1968193054199220,79,124,93,85,59,15178,2167329124,2171345435,2171908955,2148383222,2157151780,2159473197,2159343497,2148288905,1673,2,16,41830
1339802136,5807,92.2799987792968800,23.7008991241455080,35.2583999633789060,241.9595947265625000,47.7686386108398440,23.6920108795166000,28.1258907318115230,77,123,92,84,59,15181,2181641545,2189338605,2190690157,2148926857,2164746843,2169270793,2168373513,2149143588,1394,2,16,48211
1339802191,5806,89.6900024414062500,23.7306003570556640,35.2622985839843750,242.6504058837890600,46.4454689025878900,23.7329807281494140,28.0787200927734380,75,124,92,86,59,15179,2185093494,2192878262,2193840676,2149138724,2167145124,2171899465,2170304246,2149339611,1018,2,16,53984
1339802246,5804,87.0599975585937500,23.7980003356933600,35.2692985534668000,243.1688995361328000,44.0603408813476560,23.8068599700927730,28.0263099670410160,73,122,92,85,58,15178,2190460644,2198745545,2199256557,2149429275,2170852873,2176081170,2173571593,2149663149,669,1,16,26165
1339802301,5810,84.6100006103515600,23.8766002655029300,35.2705993652343750,243.9084930419922000,42.0378189086914060,23.8695201873779300,27.9685401916503900,74,122,95,85,59,15178,2193777133,2202123547,2202027062,2149628653,2173285275,2178464301,2175108598,2149829010,3573,1,17,28326
1339802358,5807,82.2099990844726600,23.9867992401123050,35.2764015197753900,243.8580932617187500,39.3259811401367200,23.9535808563232420,27.9372596740722660,69,123,93,86,59,15178,2170989312,2173363126,2171998217,2148604141,2161117952,2162661888,2160596571,2148436845,3264,1,16,42237
1339802413,5803,79.9499969482421900,24.1145992279052730,35.2858009338378900,244.2317047119140600,34.8519515991210940,24.0923404693603500,27.8654594421386720,69,123,93,85,57,15173,2173484461,2175922368,2174210166,2148735917,2163063570,2164678573,2162043190,2148580909,2715,2,16,38789
1339802468,5808,77.8799972534179700,24.1704998016357420,35.2929992675781250,244.9980010986328000,33.4901313781738300,24.1345901489257800,27.8150997161865230,70,123,95,85,57,15171,2183800228,2187425252,2184871222,2149195300,2170633179,2173297746,2168953170,2149236900,2631,2,16,63960
1339802523,5807,76.0599975585937500,24.2530002593994140,35.2937011718750000,245.0016021728515600,31.0963497161865230,24.2088909149169920,27.7853603363037100,72,124,93,84,60,15170,2197759542,2203565787,2200804992,2150089325,2179379053,2183232374,2176961069,2150075291,2950,2,16,26923
1339802590,5811,74.1100006103515600,24.2723999023437500,35.2941017150878900,245.4998016357422000,29.2404308319091800,24.2665100097656250,27.7408504486084000,71,124,94,86,56,15165,2221994066,2232455478,2230197997,2151811145,2194996790,2201566116,2192231350,2151654345,2924,2,16,9186
1339802679,5810,71.2300033569336000,24.3945007324218750,35.2930984497070300,245.7707061767578000,25.3695697784423830,24.3867607116699220,27.6813507080078120,66,122,92,86,61,15155,2200127222,2204639360,2200841965,2150503405,2183002294,2185942509,2177997796,2150244434,2472,2,17,31329
1339802734,5806,68.8899993896484400,24.4351005554199220,35.2925987243652340,246.1539001464843800,24.0017509460449220,24.4292602539062500,27.6480503082275400,65,122,93,85,58,15162,2189505700,2191744091,2187997915,2149906898,2176695780,2178074541,2171177810,2149559360,2128,1,17,40005
1339802789,5807,66.5400009155273400,24.4554996490478500,35.2901000976562500,246.1748046875000000,23.2194900512695300,24.4535808563232420,27.6375808715820300,65,123,93,85,57,15161,2192807561,2194724278,2190465737,2150219126,2179942610,2181064914,2173046464,2149768612,1854,2,17,29129
1339802844,5817,64.3000030517578100,24.4556999206542970,35.2051010131835940,246.6522979736328000,23.2588291168212900,24.4523601531982420,27.6172199249267580,61,128,93,85,57,15144,2202836681,2205176420,2200055186,2151075776,2188413037,2189808941,2179405522,2150463424,1828,2,17,45742
1339802899,5807,62.5400009155273440,24.5286006927490230,35.1747016906738300,246.3630065917968800,21.0375499725341800,24.5214195251464840,27.6025390625000000,63,128,92,85,60,15149,2241895259,2248926290,2242557110,2154696201,2218884708,2223230948,2205208155,2153256649,2234,2,17,1683
1339802954,5811,61.2000007629394500,24.5781993865966800,35.1767005920410160,246.4373016357422000,19.3304290771484380,24.5745105743408200,27.5783500671386720,61,124,92,85,59,15154,2248720859,2255999634,2249252800,2155502939,2225392676,2229793078,2209912886,2153824859,2551,1,17,44497
1339803044,5809,58.7799987792968750,24.8407001495361330,35.1347999572753900,245.5670013427734400,12.6866502761840820,24.7812900543212900,27.5346393585205080,60,125,93,85,55,15155,2262998363,2270710061,2262606409,2157243456,2240655387,2244900781,2220593718,2155082724,2609,2,16,22849
1339803099,5809,57.2299995422363300,24.9769001007080080,35.1113014221191400,244.6062011718750000,7.4628181457519530,24.9440498352050780,27.5123405456542970,59,124,94,86,60,15146,2292500205,2303468342,2295015506,2160981120,2264610697,2269619172,2238620818,2157193426,3078,2,17,33666
1339803202,5807,55.5400009155273440,25.0000000000000000,35.1087989807128900,243.8350982666015600,5.5208439826965330,25.0045890808105470,27.5221595764160160,58,125,94,84,58,15147,2265828562,2271143552,2261304374,2157765101,2248514395,2249773760,2221985069,2155246244,170,1,16,32679
1339803340,5811,53.0099983215332000,25.2229003906250000,35.0844993591308600,241.9067993164062500,-1.2661279439926147,25.2163696289062500,27.5234603881835940,56,124,92,84,56,10332,2299287460,2309203254,2300802678,2164227940,2275538249,2276591131,2240721078,2158029220,1335,1,17,54552
1339803407,5807,51.3100013732910160,25.3791007995605470,35.0802993774414060,240.7010955810547000,-6.2611069679260250,25.3724002838134770,27.5154800415039060,57,124,92,85,52,15158,2323371766,2334586450,2325088246,2168052681,2307113828,2307477120,2262277174,2160432667,765,2,16,28381
1339803510,5810,49.5299987792968750,25.4090995788574220,35.0826988220214840,240.1483001708984400,-7.6891160011291500,25.4170303344726560,27.5224494934082030,56,122,92,84,56,15154,2303210541,2311856310,2301856356,2166162358,2298587465,2295399396,2251297965,2159164937,3221,1,17,18516
1339803647,5811,46.8699989318847660,25.4570007324218750,35.0866012573242200,239.6985931396484400,-9.2726106643676760,25.4665393829345700,27.5230598449707030,55,121,98,84,52,15141,2328064429,2337176256,2325930240,2171795017,2330493979,2323311634,2268265188,2161517266,248,1,16,58892
1339803702,5803,44.7900009155273440,25.5221004486084000,35.0826988220214840,239.3347930908203000,-11.3069295883178710,25.5301704406738280,27.5142707824707030,55,120,93,86,55,15143,2341439817,2350812489,2339554002,2176339602,2354856667,2345760795,2282923008,2163616320,432,1,17,5082
1339803757,5809,42.6199989318847660,25.5711002349853500,35.0802993774414060,238.9635925292968800,-12.8031902313232420,25.5769901275634770,27.5124206542968750,53,120,94,84,54,15149,2276951323,2277753792,2265538532,2165118006,2297697856,2285677714,2237913536,2157842505,397,1,16,59354
1339803812,5807,40.4399986267089840,25.5919990539550780,35.0784988403320300,238.6889038085937500,-13.6024703979492190,25.6019992828369140,27.5148792266845700,53,120,93,84,59,15155,2368957613,2380615552,2371206336,2188093129,2392257773,2378817069,2303485284,2167556964,619,1,16,59377
1339803867,5808,38.1100006103515600,25.6284008026123050,35.0754013061523440,238.3892974853515600,-14.7535295486450200,25.6380290985107420,27.5140800476074220,53,118,89,84,54,15159,2368413330,2377755126,2367292973,2190558902,2408549650,2392063451,2310469494,2168851419,861,2,16,8308
1339803922,5809,35.7200012207031250,25.6501998901367200,35.0732002258300800,238.4777069091797000,-15.4696903228759770,25.6604499816894530,27.5013504028320300,53,118,96,83,56,15152,2356946038,2364743926,2355315858,2192797878,2395617965,2376064073,2297458020,2167778486,887,1,16,12824
1339804000,5808,31.8199996948242200,25.7117004394531250,35.0435981750488300,238.1098022460937500,-17.4277000427246100,25.7217693328857420,27.4938392639160160,51,117,91,85,60,15158,2421805741,2435823771,2430942034,2221451117,2485968658,2461549522,2355773494,2179011648,894,0,16,55204
1339804055,5810,28.7099990844726560,25.7110996246337900,35.0359992980957000,238.1773986816406200,-17.5956707000732420,25.7270298004150400,27.4887104034423830,51,117,93,85,51,15167,2443147940,2457372132,2452111606,2238402468,2527957293,2497709147,2378356041,2183933220,250,1,16,51401